Location: Azul
(36.7830°S, 59.8500°W)
Time: 01:43:02
(UTC-03:00)

ISS - Pass Details

Date: 26 October 2020
Orbit: 417 x 420 km, 51.6° (Epoch: 28 October)

Event Time Altitude Azimuth Distance (km) Brightness Sun altitude
Rises 22:10:28 0° 218° (SW) 2,402 1.3 -28.7°
Reaches altitude 10° 22:13:19 10° 192° (SSW) 1,531 -0.2 -29.1°
Enters shadow 22:14:01 12° 182° (S) 1,391 -0.6 -29.2°
